Location: Katowice
(50.2611°N, 19.0242°E)
Time: 20:58:41
(UTC+02:00)

A-11 Canister half - Pass Details

Date: 25 July 2019
Orbit: 1526 x 1683 km, 47.3° (Epoch: 16 August)

Event Time Altitude Azimuth Distance (km) Brightness Sun altitude
Rises 01:11:57 0° 282° (WNW) 4,877 11.7 -19.8°
Reaches altitude 10° 01:15:11 10° 279° (W) 3,869 11.1 -19.8°
Maximum altitude 01:24:45 59° 204° (SSW) 1,797 9.0 -19.6°
Drops below altitude 10° 01:33:59 10° 128° (SE) 3,740 10.8 -19.3°
Sets 01:37:03 0° 124° (SE) 4,706 11.3 -19.2°
